Flag for Botswana Weather past 2 weeks in Francistown, Botswana

Now
54 °F

Clear.


Feels Like: 54 °F
Forecast: 52 / 85 °F
Wind: 1 mph from North

Location: Francistown Airport

Current Time: May 5, 2015 at 11:29:46 PM

Latest Report: May 5, 2015 at 11:00 PM


Visibility: 10 mi

Pressure: 30.15 "Hg

Humidity: 51%

Dew point: 36 °F

Location of FrancistownLocation

Historic Weather in Francistown — Graph

°F

Francistown temperature yesterday

Maximum temperature yesterday: 86 °F (at 1:00 PM)
Minimum temperature yesterday: 45 °F (at 6:00 AM)
Average temperature yesterday: 67 °F

Past Weeks' High & Low Weather Summary

 TemperatureHumidityPressure
High90 °F (Apr 30, 2:00 PM)100% (Apr 23, 4:00 AM)30.33 "Hg (Apr 23, 4:00 AM)
Low45 °F (May 4, 6:00 AM)14% (May 4, 3:00 PM)29.95 "Hg (Apr 30, 5:00 PM)
Average69 °F53%30.16 "Hg
* Reported Apr 20 10:00 PM — May 5 10:00 PM, Francistown, Weather by CustomWeather, © 2015

Note: Actual official high and low records may vary slightly from our data, if they occured in-between our weather recording intervals... More about our weather records

Advertising

Francistown weather history for previous 24 hours

 ConditionsComfort  
Time TempWeatherWind HumidityBarometerVisibility
10:00 PM
Tue, May 5
52 °FClear.3 mph54%30.15 "Hg10 mi
9:00 PM59 °FClear.1 mph45%30.15 "Hg10 mi
7:00 PM66 °FClear.5 mph32%30.12 "Hg10 mi
6:00 PM75 °FClear.7 mph24%30.12 "Hg10 mi
5:00 PM82 °FClear.8 mph17%30.12 "Hg10 mi
4:00 PM86 °FSunny.7 mph15%30.12 "Hg10 mi
3:00 PM86 °FSunny.8 mph14%30.12 "Hg10 mi
2:00 PM84 °FSunny.9 mph16%30.15 "Hg10 mi
12:00 PM84 °FPassing clouds.9 mph19%30.21 "HgN/A
11:00 AM81 °FPassing clouds.9 mph23%30.24 "HgN/A
10:00 AM79 °FPassing clouds.9 mph26%30.24 "HgN/A
9:00 AM75 °FPassing clouds.8 mph29%30.24 "HgN/A
8:00 AM64 °FSunny.5 mph40%30.24 "Hg10 mi
7:00 AM45 °FSunny.2 mph71%30.21 "Hg10 mi
6:00 AM45 °FSunny.3 mph71%30.21 "Hg10 mi
5:00 AM46 °FClear.3 mph66%30.18 "Hg10 mi
4:00 AM46 °FClear.2 mph71%30.18 "Hg10 mi
3:00 AM46 °FClear.5 mph66%30.18 "Hg10 mi
2:00 AM48 °FClear.3 mph66%30.21 "Hg10 mi
1:00 AM50 °FClear.1 mph62%30.21 "Hg10 mi
12:00 AM50 °FClear.1 mph62%30.21 "Hg10 mi
11:00 PM
Mon, May 4
54 °FClear.1 mph54%30.21 "Hg10 mi
Weather by CustomWeather, © 2015

See weather overviewHow to use our weather pages